Weather History for Shawano, WI

Change the Weather History Date:

Thursday, April 3, 2014

  Actual Average (KGRB) Record (KGRB)
Temperature  
Mean Temperature 32 °F 38 °F  
Max Temperature 34 °F 48 °F 75 °F (1921)
Min Temperature 29 °F 29 °F 7 °F (1954)
Degree Days  
Heating Degree Days 34 27  
Month to date heating degree days 81  
Since 1 July heating degree days 6981  
Cooling Degree Days 0 0  
Month to date cooling degree days 0  
Year to date cooling degree days 0  
Moisture  
Dew Point 25 °F    
Average Humidity 75    
Maximum Humidity 81    
Minimum Humidity 70    
Precipitation  
Precipitation 0.00 in 0.08 in 1.72 in (1981)
Month to date precipitation 0.24  
Year to date precipitation 4.33  
Snow  
Snow 0.00 in 0.20 in 6.00 in (1923)
Month to date snowfall 0.5  
Since 1 July snowfall 48.8  
Snow Depth -    
Sea Level Pressure  
Sea Level Pressure 30.04 in    
Wind  
Wind Speed 10 mph (ENE)    
Max Wind Speed 20 mph    
Max Gust Speed 24 mph    
Visibility 10 miles    
Events      
T = Trace of Precipitation, MM = Missing Value Source: NWS Daily Summary

Daily Weather History Graph

Daily Weather History Graph

Search for Another Location

Airport:

Trip Planner

Search our weather history database for the weather conditions in past years. The results will help you decide how hot, cold, wet, or windy it might be!

Date:

Astronomy

Apr. 03, 2014 Rise Set
Actual Time 6:31 AM CDT 7:24 PM CDT
Civil Twilight 6:01 AM CDT 7:54 PM CDT
Nautical Twilight 5:26 AM CDT 8:29 PM CDT
Astronomical Twilight 4:49 AM CDT 9:06 PM CDT
Moon 8:52 AM CDT (4/3) 11:52 PM CDT (4/3)
Length of Visible Light 13h 52m
Length of Day
12h 53m
Waxing Crescent, 17% of the Moon is Illuminated
Apr 3
Waxing Crescent
Apr 7
First Quarter
Apr 15
Full
Apr 22
Last Quarter
Apr 29
New

Hourly Weather History & Observations

Time (CDT) Temp. Windchill Dew Point Humidity Pressure Visibility Wind Dir Wind Speed Gust Speed Precip Events Conditions
12:15 AM 32.5 °F 26.2 °F 25.3 °F 75% 30.20 in 10.0 mi ENE 6.9 mph - N/A   Overcast
12:35 AM 32.2 °F 24.4 °F 24.3 °F 73% 30.18 in 10.0 mi ENE 9.2 mph - N/A   Scattered Clouds
12:55 AM 32.0 °F 25.6 °F 23.7 °F 71% 30.19 in 10.0 mi ENE 6.9 mph - N/A   Scattered Clouds
1:15 AM 32.0 °F 26.4 °F 23.9 °F 72% 30.20 in 10.0 mi ENE 5.8 mph - N/A   Mostly Cloudy
1:35 AM 32.0 °F 25.6 °F 23.7 °F 71% 30.19 in 10.0 mi ENE 6.9 mph - N/A   Mostly Cloudy
1:55 AM 32.0 °F 27.5 °F 23.7 °F 71% 30.19 in 10.0 mi NE 4.6 mph - N/A   Scattered Clouds
2:15 AM 32.0 °F 24.8 °F 23.7 °F 71% 30.16 in 10.0 mi ENE 8.1 mph - N/A   Mostly Cloudy
2:35 AM 32.0 °F 24.8 °F 23.5 °F 71% 30.17 in 10.0 mi ENE 8.1 mph - N/A   Mostly Cloudy
2:55 AM 32.0 °F 25.6 °F 23.4 °F 70% 30.17 in 10.0 mi ENE 6.9 mph - N/A   Mostly Cloudy
3:15 AM 31.8 °F 23.9 °F 23.7 °F 72% 30.17 in 10.0 mi ENE 9.2 mph - N/A   Overcast
3:35 AM 31.6 °F 24.4 °F 23.9 °F 73% 30.18 in 10.0 mi ENE 8.1 mph - N/A   Overcast
3:55 AM 31.5 °F 24.9 °F 24.6 °F 76% 30.19 in 10.0 mi ENE 6.9 mph - N/A   Overcast
4:15 AM 31.3 °F 22.1 °F 25.0 °F 77% 30.17 in 10.0 mi ENE 11.5 mph - N/A   Overcast
4:35 AM 31.1 °F 21.9 °F 25.3 °F 79% 30.16 in 10.0 mi ENE 11.5 mph - N/A   Overcast
4:55 AM 30.6 °F 21.2 °F 24.1 °F 77% 30.16 in 10.0 mi ENE 11.5 mph 16.1 mph N/A   Overcast
5:15 AM 30.2 °F 21.3 °F 23.2 °F 75% 30.16 in 10.0 mi ENE 10.4 mph 18.4 mph N/A   Overcast
5:35 AM 30.0 °F 20.5 °F 22.1 °F 72% 30.16 in 10.0 mi NE 11.5 mph - N/A   Overcast
5:55 AM 29.7 °F 19.6 °F 21.2 °F 71% 30.16 in 10.0 mi ENE 12.7 mph 16.1 mph N/A   Overcast
6:15 AM 29.7 °F 20.7 °F 21.9 °F 73% 30.15 in 10.0 mi ENE 10.4 mph - N/A   Overcast
6:35 AM 29.3 °F 19.6 °F 21.9 °F 74% 30.15 in 10.0 mi ENE 11.5 mph - N/A   Overcast
6:55 AM 29.3 °F 19.1 °F 21.9 °F 74% 30.14 in 10.0 mi ENE 12.7 mph 18.4 mph N/A   Overcast
7:15 AM 29.3 °F 19.6 °F 21.7 °F 73% 30.13 in 10.0 mi ENE 11.5 mph - N/A   Overcast
7:35 AM 29.3 °F 19.1 °F 22.1 °F 75% 30.12 in 10.0 mi ENE 12.7 mph 17.3 mph N/A   Overcast
7:55 AM 29.7 °F 19.1 °F 22.1 °F 73% 30.12 in 10.0 mi ENE 13.8 mph 20.7 mph N/A   Overcast
8:15 AM 30.0 °F 20.0 °F 22.6 °F 74% 30.11 in 10.0 mi ENE 12.7 mph - N/A   Overcast
8:35 AM 30.2 °F 19.8 °F 22.6 °F 73% 30.10 in 10.0 mi ENE 13.8 mph 19.6 mph N/A   Overcast
8:55 AM 30.6 °F 19.8 °F 23.0 °F 74% 30.09 in 10.0 mi ENE 15.0 mph 20.7 mph N/A   Overcast
9:15 AM 30.7 °F 21.4 °F 23.0 °F 73% 30.11 in 10.0 mi ENE 11.5 mph 17.3 mph N/A   Overcast
9:35 AM 30.9 °F 21.7 °F 23.2 °F 73% 30.11 in 10.0 mi ENE 11.5 mph - N/A   Overcast
9:55 AM 31.1 °F 21.4 °F 23.4 °F 73% 30.10 in 10.0 mi ENE 12.7 mph - N/A   Overcast
10:15 AM 31.6 °F 22.1 °F 23.7 °F 73% 30.09 in 10.0 mi ENE 12.7 mph 18.4 mph N/A   Overcast
10:35 AM 31.8 °F 21.8 °F 23.7 °F 72% 30.08 in 10.0 mi ENE 13.8 mph - N/A   Overcast
10:55 AM 32.0 °F 22.5 °F 24.8 °F 75% 30.08 in 10.0 mi ENE 12.7 mph 17.3 mph N/A   Overcast
11:15 AM 32.0 °F 21.6 °F 24.1 °F 73% 30.07 in 10.0 mi ENE 15.0 mph - N/A   Overcast
11:35 AM 32.2 °F 23.2 °F 24.4 °F 73% 30.06 in 10.0 mi ENE 11.5 mph - N/A   Overcast
11:55 AM 32.7 °F 23.4 °F 25.2 °F 74% 30.06 in 10.0 mi ENE 12.7 mph 16.1 mph N/A   Overcast
12:15 PM 32.7 °F 23.4 °F 25.3 °F 74% 30.05 in 10.0 mi ENE 12.7 mph 18.4 mph N/A   Overcast
12:35 PM 32.9 °F 23.7 °F 25.2 °F 73% 30.04 in 10.0 mi ENE 12.7 mph 18.4 mph N/A   Overcast
1:15 PM 33.1 °F 24.4 °F 25.9 °F 75% 30.04 in 10.0 mi ENE 11.5 mph - N/A   Overcast
1:35 PM 33.8 °F 25.3 °F 25.9 °F 73% 30.03 in 10.0 mi ENE 11.5 mph 19.6 mph N/A   Overcast
1:55 PM 33.8 °F 24.8 °F 25.7 °F 72% 30.01 in 10.0 mi ENE 12.7 mph - N/A   Overcast
2:15 PM 34.0 °F 24.2 °F 26.2 °F 73% 30.01 in 10.0 mi ENE 15.0 mph 18.4 mph N/A   Overcast
2:35 PM 34.3 °F 25.5 °F 26.4 °F 73% 29.99 in 10.0 mi ENE 12.7 mph 18.4 mph N/A   Overcast
2:55 PM 34.7 °F 25.5 °F 26.8 °F 73% 29.98 in 10.0 mi ENE 13.8 mph 19.6 mph N/A   Overcast
3:15 PM 34.7 °F 25.5 °F 26.8 °F 73% 29.97 in 10.0 mi ENE 13.8 mph 19.6 mph N/A   Overcast
3:35 PM 34.2 °F 24.8 °F 26.4 °F 73% 29.95 in 10.0 mi ENE 13.8 mph 21.9 mph N/A   Overcast
3:55 PM 34.0 °F 23.4 °F 26.2 °F 73% 29.94 in 10.0 mi ENE 17.3 mph 23.0 mph N/A   Overcast
4:15 PM 33.6 °F 22.9 °F 26.1 °F 74% 29.94 in 10.0 mi ENE 17.3 mph 21.9 mph N/A   Overcast
4:35 PM 33.8 °F 24.8 °F 27.0 °F 76% 29.95 in 10.0 mi ENE 12.7 mph 21.9 mph N/A   Overcast
4:55 PM 33.8 °F 24.3 °F 26.6 °F 75% 29.95 in 10.0 mi ENE 13.8 mph 19.6 mph N/A   Overcast
5:15 PM 33.8 °F 23.2 °F 26.6 °F 75% 29.95 in 10.0 mi ENE 17.3 mph - N/A   Overcast
5:35 PM 33.4 °F 23.5 °F 26.6 °F 76% 29.94 in 10.0 mi ENE 15.0 mph 21.9 mph N/A   Overcast
5:55 PM 33.6 °F 23.7 °F 27.0 °F 77% 29.93 in 10.0 mi ENE 15.0 mph 21.9 mph N/A   Overcast
6:15 PM 33.3 °F 21.8 °F 27.0 °F 78% 29.91 in 10.0 mi East 19.6 mph 24.2 mph N/A   Overcast
6:35 PM 33.3 °F 22.8 °F 27.0 °F 78% 29.90 in 10.0 mi ENE 16.1 mph 23.0 mph N/A   Overcast
6:55 PM 33.3 °F 25.1 °F 27.1 °F 78% 29.91 in 10.0 mi NE 10.4 mph - N/A   Overcast
7:15 PM 33.3 °F 24.6 °F 27.1 °F 78% 29.91 in 10.0 mi ENE 11.5 mph - N/A   Overcast
7:35 PM 33.3 °F 24.6 °F 27.3 °F 79% 29.90 in 10.0 mi NE 11.5 mph - N/A   Overcast
7:55 PM 33.3 °F 25.1 °F 27.5 °F 79% 29.90 in 10.0 mi ENE 10.4 mph - N/A   Overcast
8:15 PM 33.3 °F 24.6 °F 27.7 °F 80% 29.89 in 10.0 mi ENE 11.5 mph - N/A   Overcast
8:35 PM 33.1 °F 24.4 °F 27.7 °F 81% 29.89 in 10.0 mi ENE 11.5 mph - N/A   Overcast
8:55 PM 33.3 °F 24.6 °F 27.9 °F 81% 29.88 in 10.0 mi ENE 11.5 mph 18.4 mph N/A   Overcast
9:35 PM 33.3 °F 25.1 °F 28.0 °F 81% 29.87 in 10.0 mi ENE 10.4 mph - N/A   Overcast
10:55 PM 33.8 °F 25.8 °F 28.4 °F 81% 29.82 in 10.0 mi ENE 10.4 mph - N/A   Overcast
11:15 PM 33.8 °F 25.8 °F 28.2 °F 80% 29.81 in 10.0 mi ENE 10.4 mph - N/A   Overcast
11:35 PM 33.8 °F 26.4 °F 28.4 °F 81% 29.79 in 10.0 mi ENE 9.2 mph - N/A   Overcast
11:55 PM 33.8 °F 25.3 °F 28.4 °F 81% 29.77 in 10.0 mi ENE 11.5 mph - N/A   Overcast